User: anonymous   Login
Location: Unspecified
(0.0000°N, 0.0000°E)
Time: 10:46:14
(UTC+00:00)
Language:

MERIDIAN 2 - Orbit

View from above orbital plane
View from above orbital plane
View from above satellite
View from above satellite

Ground track
Ground track

The orbit data is extracted from the following two-line orbital elements,

1 35008U 09029A   17201.70632649 -.00000118 +00000-0 +10000-3 0  9999
2 35008 064.6087 038.7570 7189117 254.8089 021.7297 02.24469577066814
Epoch (UTC): 20 July 2017 16:57:06
Eccentricity: 0.7189117
inclination: 64.6087°
perigee height: 548 km
apogee height: 35974 km
right ascension of ascending node: 38.7570°
argument of perigee: 254.8089°
revolutions per day: 2.24469577
mean anomaly at epoch: 21.7297°
orbit number at epoch: 6681

The dashed part of the orbit path shows where the satellite is in the earth's shadow,  

DLR